Weather History for KMLF - August, 2013

Change the Weather History Date:

Thursday, August 29, 2013

  Actual Average Record
Temperature  
Mean Temperature 74 °F -  
Max Temperature 93 °F 85 °F 97 °F (1998)
Min Temperature 57 °F 51 °F 42 °F (2004)
Cooling Degree Days 9    
Growing Degree Days 24 (Base 50)    
Moisture  
Dew Point 47 °F    
Average Humidity 40    
Maximum Humidity 78    
Minimum Humidity 10    
Precipitation  
Precipitation 0.00 in - - ()
Sea Level Pressure  
Sea Level Pressure 29.98 in    
Wind  
Wind Speed 7 mph (SSW)    
Max Wind Speed 13 mph    
Max Gust Speed 16 mph    
Visibility 10 miles    
Events      
Averages and records for this station are not official NWS values.
T = Trace of Precipitation, MM = Missing Value Source: NWS Daily Summary

Daily Weather History Graph

Daily Weather History Graph

Search for Another Location

Airport or City:

Trip Planner

Search our weather history database for the weather conditions in past years. The results will help you decide how hot, cold, wet, or windy it might be!

Date:

Astronomy

Aug. 29, 2013 Rise Set
Actual Time 6:59 AM MDT 8:05 PM MDT
Civil Twilight 6:31 AM MDT 8:33 PM MDT
Nautical Twilight 5:59 AM MDT 9:05 PM MDT
Astronomical Twilight 5:25 AM MDT 9:39 PM MDT
Moon 12:55 AM MDT (8/29) 3:35 PM MDT (8/29)
Length of Visible Light 14h 01m
Length of Day
13h 06m
Last Quarter, 37% of the Moon is Illuminated
Aug 29
Last Quarter
Sep 5
New
Sep 12
First Quarter
Sep 19
Full
Sep 26
Last Quarter

Hourly Weather History & Observations

Time (MDT) Temp. Dew Point Humidity Pressure Visibility Wind Dir Wind Speed Gust Speed Precip Events Conditions
12:52 AM 66.0 °F 53.1 °F 63% 29.98 in 10.0 mi SSE 5.8 mph - N/A   Clear
1:52 AM 66.0 °F 53.1 °F 63% 29.98 in 10.0 mi WSW 6.9 mph - N/A   Clear
2:52 AM 63.0 °F 52.0 °F 67% 29.98 in 10.0 mi SSE 8.1 mph - N/A   Clear
3:52 AM 61.0 °F 52.0 °F 72% 29.99 in 10.0 mi South 3.5 mph - N/A   Clear
4:52 AM 59.0 °F 48.0 °F 67% 29.99 in 10.0 mi Calm Calm - N/A   Clear
5:52 AM 60.1 °F 51.1 °F 72% 29.99 in 10.0 mi South 6.9 mph - N/A   Clear
6:52 AM 59.0 °F 52.0 °F 78% 30.01 in 10.0 mi SSW 3.5 mph - N/A   Clear
7:52 AM 63.0 °F 52.0 °F 67% 30.04 in 10.0 mi SSW 11.5 mph - N/A   Clear
8:52 AM 68.0 °F 52.0 °F 56% 30.04 in 10.0 mi SSW 11.5 mph - N/A   Clear
10:52 AM 81.0 °F 50.0 °F 34% 30.03 in 10.0 mi South 10.4 mph - N/A   Clear
11:52 AM 84.9 °F 48.9 °F 29% 30.02 in 10.0 mi South 10.4 mph - N/A   Clear
12:52 PM 86.0 °F 45.0 °F 24% 30.02 in 10.0 mi South 8.1 mph - N/A   Clear
1:52 PM 88.0 °F 43.0 °F 21% 30.00 in 10.0 mi South 6.9 mph - N/A   Clear
2:52 PM 90.0 °F 41.0 °F 18% 29.98 in 10.0 mi South 5.8 mph 16.1 mph N/A   Clear
3:52 PM 91.0 °F 41.0 °F 17% 29.96 in 10.0 mi Variable 3.5 mph - N/A   Clear
4:52 PM 91.9 °F 41.0 °F 17% 29.95 in 10.0 mi SSE 12.7 mph - N/A   Partly Cloudy
5:52 PM 91.0 °F 41.0 °F 17% 29.93 in 10.0 mi South 9.2 mph - N/A   Clear
6:52 PM 90.0 °F 41.0 °F 18% 29.94 in 10.0 mi Calm Calm - N/A   Clear
7:52 PM 84.9 °F 44.1 °F 24% 29.95 in 10.0 mi WNW 5.8 mph - N/A   Clear
8:52 PM 79.0 °F 45.0 °F 30% 29.97 in 10.0 mi WNW 6.9 mph - N/A   Clear
9:52 PM 77.0 °F 46.0 °F 33% 29.98 in 10.0 mi South 5.8 mph - N/A   Clear
10:52 PM 77.0 °F 46.0 °F 33% 29.96 in 10.0 mi SW 5.8 mph - N/A   Clear
11:52 PM 75.0 °F 44.1 °F 33% 29.97 in 10.0 mi SSW 8.1 mph - N/A   Clear